Location: NCO
(38.4404°N, 77.1340°W)
Time: 20:00:28
(UTC-05:00)

Hubble Space Telescope - Visible Passes

Search period start: 20 November 2017 00:00
Search period end: 30 November 2017 00:00
Orbit: 537 x 541 km, 28.5° (Epoch: 20 November)

Date Brightness Start Highest point End Pass type
(mag) Time Alt. Az. Time Alt. Az. Time Alt. Az.
20 Nov 3.7 04:10:00 12° SE 04:10:00 12° SE 04:10:35 10° SE visible
20 Nov 2.8 05:45:41 10° SW 05:48:46 20° S 05:51:51 10° SE visible
21 Nov 3.9 04:00:30 10° SE 04:00:30 10° SE 04:00:31 10° SE visible
21 Nov 2.8 05:35:52 12° SW 05:38:27 20° S 05:41:31 10° SE visible
22 Nov 2.8 05:26:19 15° SW 05:28:08 19° S 05:31:09 10° SE visible
23 Nov 2.7 05:16:45 17° SSW 05:17:50 18° S 05:20:43 10° SE visible
24 Nov 2.8 05:07:10 17° SSW 05:07:31 17° S 05:10:13 10° SSE visible
25 Nov 3.0 04:57:36 15° S 04:57:36 15° S 04:59:39 10° SSE visible
26 Nov 3.3 04:48:02 12° S 04:48:02 12° S 04:48:57 10° SSE visible
